[[{"header":{"parameterUnit":"m.s-1","parameterCategory":1,"la1":30.2991,"la2":30.254,"lo1":-89.0895,"lo2":-89.0444,"dy":0.0017,"dx":0.0017,"nx":28,"ny":28,"refTime":"2023-07-25T09:00:00:Z","depth":0,"parameterNumber":2,"parameterNumberName":"U-component_of_WINDS"},"data":[0,0,0,0,0,0,0,0,0,0,0,0,0,0,0,0,0,0,0,0,0,0,0,0,0,0,0,0,0,0,0,0,0,0,0,0,0,0,0,0,0,0,0,0,0,0,0,0,0,0,0,0,0,0,0,0,0,0,2.5684,2.5685,0,2.5788,2.5789,2.579,2.5752,2.575,2.5748,2.5745,2.5854,2.5859,2.5864,0,0,0,0,0,0,0,0,0,0,0,0,0,2.5451,2.5456,2.5683,2.5685,2.5686,2.5788,2.5789,2.579,2.5753,2.575,2.5747,2.5744,2.5852,2.5858,2.5864,0,0,0,0,0,0,0,0,0,0,0,0,0,2.5554,2.5457,2.5683,2.5679,2.568,2.5787,2.5789,2.5791,2.5753,2.575,2.5746,2.5743,2.585,2.5858,2.5865,2.5983,0,0,2.5888,2.5892,0,0,0,0,0,0,0,0,2.5548,2.5562,2.5679,2.568,2.5681,2.5753,2.5747,2.5855,2.5754,2.5726,2.5745,2.5741,2.5823,2.5833,2.586,2.5988,2.5992,2.5889,2.5894,2.5897,2.5899,0,0,0,0,0,0,0,2.5541,2.5557,2.5725,2.568,2.5682,2.5672,2.5683,2.5767,2.5793,2.5728,2.5725,2.5738,2.5823,2.5853,2.5863,2.5994,2.5889,2.5896,2.59,2.5903,2.622,2.6224,0,0,0,0,0,0,2.5533,2.5552,2.5721,2.5728,2.5604,2.5679,2.5691,2.5734,2.5792,2.5798,2.5741,2.5736,2.5842,2.5854,2.5866,2.6005,2.5897,2.5904,2.5908,2.6216,2.6221,2.6225,0,0,0,0,0,0,2.5528,2.5549,2.5717,2.5639,2.566,2.5687,2.5735,2.5738,2.5767,2.5802,2.5806,2.5767,2.584,2.5856,2.5953,2.6009,2.5908,2.5914,2.6212,2.6218,2.6223,2.6286,0,0,0,0,0,0,2.5522,2.5547,2.5592,2.564,2.5664,2.5803,2.5739,2.5742,2.578,2.5775,2.5827,2.5833,2.5838,2.5942,2.5961,2.6017,2.592,2.6207,2.6214,2.6221,2.6279,2.6293,2.6305,0,0,0,0,0,2.5514,2.5607,2.5595,2.5616,2.5721,2.5806,2.5819,2.5823,2.5785,2.583,2.5852,2.5831,2.6,2.5952,2.5973,2.6033,2.6203,2.6212,2.6221,2.6273,2.629,2.6305,0,0,0,0,0,0,2.5566,2.5613,2.56,2.5712,2.5755,2.5799,2.5857,2.5842,2.5897,2.589,2.5893,2.5905,2.6005,2.6029,2.5975,2.6148,2.6096,2.6109,2.6129,2.6145,2.6158,2.615,2.5927,0,0,0,0,0,2.559,2.5655,2.5693,2.5788,2.581,2.583,2.5867,2.5866,2.5911,2.5929,2.5958,2.6003,2.6065,2.6107,2.6167,2.6283,2.6292,2.6334,2.6347,2.6357,2.6368,2.6429,2.6447,2.6253,2.6253,2.6253,0,0,2.5642,2.5675,2.5716,2.5799,2.5832,2.5898,2.5845,2.5919,2.5967,2.594,2.6033,2.6056,2.6106,2.6212,2.6261,2.6236,2.6424,2.6369,2.6377,2.6382,2.6439,2.6458,2.6474,2.6259,2.6258,2.6257,0,0,2.5768,2.5802,2.5883,2.5916,2.5967,2.5979,2.5998,2.6045,2.6058,2.6152,2.6132,2.619,2.6299,2.6335,2.6367,2.6505,2.6486,2.6524,2.6592,2.6651,2.6666,2.668,2.6727,2.6744,2.6535,2.6536,2.6536,0,2.5826,2.5925,2.5927,2.6,2.6036,2.6014,2.6095,2.6128,2.6196,2.6221,2.6192,2.6326,2.6358,2.6471,2.6504,2.6532,2.6553,2.6518,2.6664,2.6678,2.669,2.6735,2.6753,2.654,2.6539,2.6539,2.6538,0,2.5992,2.6061,2.612,2.6184,2.6227,2.6305,2.6317,2.6361,2.6356,2.6371,2.6465,2.6503,2.6568,2.6595,2.6592,2.6708,2.669,2.6663,2.661,2.6713,2.6754,2.6772,2.6546,2.6544,2.6543,2.6542,0,0,2.6155,2.6217,2.6239,2.6267,2.632,2.6373,2.6449,2.6512,2.6548,2.6595,2.6658,2.6749,2.6723,2.676,2.676,2.6812,2.6916,2.6778,2.6779,2.68,2.7042,2.7061,2.7081,2.6904,2.6908,2.691,2.7037,0,2.6284,2.6416,2.6419,2.654,2.6602,2.6581,2.6646,2.6686,2.6701,2.6756,2.6774,2.6838,2.68,2.6821,2.6872,2.6892,2.6964,2.6884,2.6961,2.6964,2.6948,2.7104,2.7124,2.7243,2.7054,2.7057,2.7059,0,2.6453,2.6504,2.663,2.6672,2.6698,2.6757,2.6813,2.6867,2.691,2.6918,2.6958,2.695,2.7026,2.6971,2.7076,2.7021,2.7053,2.7068,2.7072,2.7078,2.7017,2.7112,2.7281,2.7298,2.7085,2.7083,2.7081,0,2.6557,2.6657,2.6744,2.6769,2.682,2.6862,2.6885,2.6925,2.6962,2.7012,2.7035,2.7094,2.7126,2.7172,2.7179,2.7139,2.7283,2.723,2.729,2.729,2.7321,2.7319,2.7495,2.7345,2.7345,2.7344,2.7344,0,2.67,2.6778,2.6791,2.6845,2.6931,2.6933,2.7018,2.7038,2.7074,2.713,2.7116,2.717,2.7177,2.7233,2.724,2.7324,2.7339,2.7346,2.7347,2.7347,2.7345,2.7367,2.7358,2.7349,2.7348,2.7347,2.7346,0,2.683,2.6842,2.6936,2.6976,2.6987,2.7049,2.7083,2.7134,2.7147,2.7219,2.7237,2.7258,2.7322,2.7334,2.7411,2.7415,2.7515,2.7508,2.75,2.7498,2.7558,2.7551,2.7753,2.7778,2.7613,2.7615,2.7616,0,2.6919,2.6978,2.7024,2.706,2.7085,2.7144,2.7181,2.7185,2.7224,2.7277,2.7321,2.7384,2.7434,2.7538,2.756,2.7618,2.7611,2.7678,2.762,2.7617,2.761,2.7605,2.761,2.7689,2.769,2.7692,2.7693,0,2.7076,2.7079,2.7132,2.7188,2.7232,2.7276,2.7317,2.7348,2.7357,2.7402,2.7467,2.7505,2.7582,2.7644,2.7701,2.7725,2.771,2.7711,2.7728,2.7727,2.7719,2.7722,2.7528,2.7706,2.7705,2.7704,2.7703,2.7703,2.7188,2.7238,2.7276,2.7336,2.7367,2.7406,2.7455,2.7473,2.7527,2.7589,2.7588,2.7659,2.7699,2.7774,2.7801,2.7856,2.7835,2.786,2.7866,2.7871,2.7876,2.7711,2.7867,2.7867,2.7866,2.7866,2.7866,0,2.7342,2.7365,2.742,2.7477,2.7523,2.7505,2.7549,2.7589,2.7651,2.7689,2.7738,2.7811,2.787,2.7897,2.7955,2.7993,2.7988,2.8008,2.8005,2.801,2.7893,2.7871,2.8012,2.8012,2.8012,2.8011,2.8011,2.8011,2.7427,2.751,2.7517,2.7615,2.7638,2.7706,2.7732,2.7767,2.7797,2.7879,2.7928,2.7944,2.7977,2.8037,2.809,2.8096,2.8118,2.8141,2.8144,2.8033,2.8019,2.8004,2.7984,2.8146,2.8146,2.8256,2.8257,2.8258]},{"header":{"parameterUnit":"m.s-1","parameterCategory":1,"la1":30.2991,"la2":30.254,"lo1":-89.0895,"lo2":-89.0444,"dy":0.0017,"dx":0.0017,"nx":28,"ny":28,"refTime":"2023-07-25T09:00:00:Z","depth":0,"parameterNumber":3,"parameterNumberName":"V-component_of_WINDS"},"data":[0,0,0,0,0,0,0,0,0,0,0,0,0,0,0,0,0,0,0,0,0,0,0,0,0,0,0,0,0,0,0,0,0,0,0,0,0,0,0,0,0,0,0,0,0,0,0,0,0,0,0,0,0,0,0,0,0,0,1.4844,1.4843,0,1.4782,1.4781,1.478,1.4715,1.4715,1.4714,1.4713,1.4649,1.4648,1.4647,0,0,0,0,0,0,0,0,0,0,0,0,0,1.4904,1.4903,1.4844,1.4843,1.4842,1.4782,1.4781,1.478,1.4716,1.4714,1.4713,1.4712,1.4649,1.4648,1.4647,0,0,0,0,0,0,0,0,0,0,0,0,0,1.4864,1.4903,1.4844,1.4803,1.4798,1.4782,1.4781,1.478,1.4716,1.4714,1.4713,1.4712,1.4649,1.4648,1.4647,1.4665,0,0,1.4643,1.4642,0,0,0,0,0,0,0,0,1.4866,1.4861,1.4809,1.4805,1.4801,1.4755,1.4778,1.4741,1.4716,1.4747,1.4713,1.4711,1.4685,1.4681,1.4672,1.4662,1.466,1.4642,1.4642,1.4641,1.4641,0,0,0,0,0,0,0,1.4869,1.4864,1.4819,1.4809,1.4803,1.4787,1.4779,1.4771,1.4724,1.4744,1.4739,1.4733,1.4682,1.4673,1.467,1.4659,1.4643,1.4641,1.4641,1.464,1.4659,1.466,0,0,0,0,0,0,1.4878,1.4866,1.4821,1.4817,1.4831,1.4787,1.4779,1.4771,1.4724,1.4716,1.4734,1.473,1.4676,1.4672,1.4667,1.4684,1.4641,1.464,1.4639,1.4657,1.4659,1.466,0,0,0,0,0,0,1.488,1.4875,1.4823,1.484,1.4833,1.4787,1.4779,1.477,1.4761,1.4717,1.4708,1.4734,1.4675,1.4669,1.4666,1.4681,1.4639,1.4638,1.4656,1.4658,1.4659,1.472,0,0,0,0,0,0,1.4882,1.4876,1.4883,1.4841,1.4832,1.4824,1.478,1.477,1.4759,1.4754,1.4714,1.4706,1.4673,1.4668,1.4665,1.4679,1.4637,1.4654,1.4657,1.4659,1.4716,1.4724,1.473,0,0,0,0,0,1.4884,1.4903,1.4884,1.4879,1.484,1.4825,1.482,1.4782,1.4761,1.4767,1.4738,1.4707,1.468,1.4668,1.4664,1.4678,1.4653,1.4656,1.4659,1.4713,1.4722,1.473,0,0,0,0,0,0,1.4948,1.4897,1.4875,1.4881,1.4858,1.4814,1.4821,1.4793,1.4775,1.4771,1.4724,1.4716,1.4717,1.4697,1.4685,1.4692,1.4662,1.4664,1.4705,1.4713,1.472,1.4724,1.4636,0,0,0,0,0,1.4963,1.4955,1.491,1.492,1.4909,1.4867,1.4859,1.4832,1.4806,1.4796,1.4767,1.4742,1.4728,1.472,1.4704,1.4713,1.4702,1.472,1.4727,1.4733,1.4735,1.4736,1.4743,1.467,1.467,1.467,0,0,1.4993,1.4964,1.4962,1.4932,1.4911,1.4903,1.486,1.4854,1.4847,1.4795,1.479,1.4767,1.4737,1.4739,1.4739,1.4722,1.4753,1.4737,1.4742,1.4741,1.474,1.4747,1.4753,1.4672,1.4671,1.4671,0,0,1.5044,1.5022,1.5027,1.5006,1.4974,1.4946,1.4947,1.4908,1.489,1.4884,1.4845,1.4836,1.4813,1.4792,1.4778,1.482,1.479,1.4816,1.4851,1.4853,1.4858,1.4863,1.4876,1.4881,1.4818,1.4818,1.4819,0,1.5086,1.5073,1.5032,1.5028,1.5015,1.4968,1.4971,1.4953,1.4918,1.491,1.4892,1.4861,1.4837,1.4833,1.4843,1.4834,1.4832,1.482,1.4861,1.4865,1.4869,1.4881,1.4886,1.4822,1.4821,1.4821,1.4821,0,1.5124,1.5116,1.5123,1.509,1.5078,1.5078,1.5037,1.5029,1.5003,1.4976,1.4969,1.4939,1.4915,1.4912,1.4887,1.4904,1.4894,1.487,1.4838,1.488,1.489,1.4895,1.4826,1.4825,1.4824,1.4823,0,0,1.5214,1.5158,1.5161,1.5145,1.5106,1.5098,1.5095,1.5072,1.5065,1.5043,1.5038,1.5018,1.4994,1.4979,1.4951,1.4952,1.4984,1.4927,1.4925,1.4937,1.4998,1.5016,1.5022,1.4964,1.4965,1.4966,1.5,0,1.5257,1.5249,1.5212,1.5214,1.5205,1.5159,1.5156,1.5131,1.5105,1.5093,1.5064,1.5051,1.5021,1.5011,1.5011,1.4981,1.4996,1.4978,1.4958,1.4957,1.4966,1.5028,1.5047,1.5081,1.5004,1.5005,1.5005,0,1.5306,1.5286,1.5288,1.5247,1.5242,1.524,1.5214,1.5204,1.5174,1.5155,1.5137,1.5105,1.5097,1.5069,1.5056,1.5045,1.5034,1.5018,1.5018,1.5014,1.4983,1.5024,1.5092,1.5096,1.5011,1.5011,1.5011,0,1.537,1.5343,1.5339,1.5327,1.528,1.528,1.526,1.5229,1.5217,1.5194,1.5186,1.5163,1.5151,1.5133,1.5095,1.5078,1.5086,1.5055,1.5069,1.507,1.5072,1.5072,1.5138,1.5068,1.5068,1.5068,1.5068,0,1.5421,1.5423,1.5367,1.5365,1.5365,1.5322,1.5324,1.53,1.5272,1.5263,1.5222,1.5215,1.5166,1.5152,1.5122,1.5115,1.511,1.5094,1.5085,1.5097,1.5099,1.5088,1.5084,1.5069,1.5069,1.5068,1.5068,0,1.5491,1.5454,1.5447,1.5403,1.5392,1.5394,1.5356,1.5351,1.5323,1.5312,1.5307,1.5263,1.5244,1.5205,1.5176,1.5155,1.5155,1.5142,1.5166,1.516,1.5176,1.5174,1.5236,1.5241,1.517,1.517,1.5171,0,1.5526,1.5526,1.5482,1.5473,1.5455,1.5442,1.5429,1.5386,1.5375,1.534,1.5339,1.5317,1.5298,1.527,1.5235,1.5212,1.5196,1.5219,1.5192,1.5203,1.5194,1.5194,1.5193,1.5225,1.5226,1.5227,1.5227,0,1.559,1.5571,1.5555,1.5532,1.5517,1.5497,1.5474,1.5469,1.5421,1.5409,1.539,1.5375,1.5345,1.5323,1.5294,1.5273,1.5241,1.5236,1.5238,1.5249,1.5262,1.5253,1.518,1.5235,1.5234,1.5234,1.5233,1.5233,1.5642,1.564,1.5608,1.559,1.5569,1.5548,1.5541,1.5511,1.5495,1.5467,1.5443,1.5425,1.5393,1.5352,1.5332,1.5316,1.5301,1.5304,1.5304,1.5305,1.5309,1.5265,1.5311,1.5311,1.5311,1.531,1.531,0,1.5703,1.568,1.5664,1.5633,1.5619,1.5592,1.5565,1.5554,1.5539,1.5513,1.5494,1.5471,1.5449,1.5411,1.5386,1.5381,1.5366,1.5376,1.5375,1.537,1.5326,1.5326,1.5388,1.5388,1.5388,1.5388,1.5388,1.5388,1.5733,1.5727,1.5704,1.5686,1.5662,1.5646,1.5632,1.5612,1.559,1.5566,1.5548,1.5524,1.5492,1.5464,1.5442,1.5431,1.5423,1.5437,1.5422,1.5381,1.5373,1.5366,1.5366,1.5436,1.5436,1.5467,1.5467,1.5467]}]]